Terminal Aerodrome Forecast
Issued by NWS Austin/San Antonio, TX

Home | Current Version | Previous Version | Text Only | Print | Product List | Glossary On
Versions: 1 2 3 4 5 6 7 8 9 10 11 12
000
FTUS44 KEWX 301126
TAFAUS
TAF
KAUS 301126Z 3012/3118 20004KT P6SM BKN080 OVC150
     FM301800 17010KT P6SM VCSH BKN150
     FM310200 17006KT P6SM SCT050 BKN150=

USA.gov is the U.S. government's official web portal to all federal, state and local government web resources and services.